Location: *
(48.5667°N, 7.6000°E)
Time: 13:28:41
(UTC+00:00)

Daily predictions for brighter satellites

Satellite Brightness Start Highest point End
(mag) Time Altitude Azimuth Time Altitude Azimuth Time Altitude Azimuth
Cosmos 1980 3.8 18:17:55 10° SSW 18:23:37 86° ESE 18:29:21 10° NNE
STARLINK-1109 3.7 18:19:44 10° WNW 18:23:50 82° SSW 18:27:55 10° ESE
SL-8 R/B 3.7 18:19:11 10° W 18:23:58 87° S 18:28:46 10° E
STARLINK-1123 4.2 18:20:06 10° WNW 18:24:09 51° NNE 18:28:13 10° E
ERBS 3.1 18:22:29 10° WSW 18:25:48 51° NNW 18:29:08 10° NE
STARLINK-1246 4.0 18:22:06 10° SW 18:26:01 45° SE 18:29:57 10° ENE
CZ-2D R/B 4.3 18:24:11 10° S 18:27:54 49° W 18:31:37 10° NNW
STARLINK-1091 3.7 18:24:33 10° WNW 18:28:39 77° SSW 18:32:44 10° ESE
Cosmos 1766 3.3 18:25:01 10° S 18:28:59 69° E 18:32:57 10° NNE
STARLINK-1097 4.1 18:25:04 10° WNW 18:29:08 52° NNE 18:33:12 10° E
Orbus 7S? 4.4 18:26:24 10° WNW 18:29:14 28° SW 18:31:24 10° SSE
STARLINK-1066 3.8 18:27:55 10° WNW 18:30:57 45° SW 18:33:58 10° SE
ADEOS Rocket 3.3 18:24:19 10° NNE 18:31:14 83° WNW 18:37:22 10° SSW
STARLINK-67 2.7 18:28:44 10° WSW 18:31:18 66° NNW 18:33:53 10° ENE
STARLINK-1081 3.8 18:28:24 10° WNW 18:31:24 44° SSW 18:34:22 10° SE
STARLINK-1201 3.0 18:28:31 10° SW 18:31:46 69° SSE 18:35:02 10° ENE
USA 234 4.0 18:26:03 10° ENE 18:31:46 31° SE 18:37:27 10° S
STARLINK-1070 3.8 18:28:51 10° WNW 18:31:51 43° SW 18:34:49 10° SE
STARLINK-1069 3.8 18:29:16 10° WNW 18:32:18 43° SSW 18:35:18 10° SE
STARLINK-1085 3.8 18:29:43 10° WNW 18:32:44 43° SW 18:35:45 10° SE
STARLINK-1086 3.8 18:30:13 10° WNW 18:33:12 42° SW 18:36:10 10° SE
STARLINK-1224 3.8 18:29:17 10° SW 18:33:13 50° SE 18:37:10 10° ENE
Cosmos 1626 2.5 18:29:55 10° N 18:33:28 41° ENE 18:36:59 10° SSE
STARLINK-1095 3.9 18:30:40 10° WNW 18:33:39 42° SW 18:36:37 10° SE
STARLINK-1077 3.9 18:31:07 10° WNW 18:34:05 42° SW 18:37:03 10° SE
STARLINK-1099 4.1 18:30:04 10° WNW 18:34:09 54° NNE 18:38:13 10° E
STARLINK-1075 3.9 18:31:34 10° WNW 18:34:32 41° SW 18:37:30 10° SE
STARLINK-1203 3.7 18:30:56 10° SW 18:34:49 54° SSE 18:38:43 10° ENE
STARLINK-1093 3.9 18:31:58 10° WNW 18:34:59 41° SW 18:37:59 10° SE
STARLINK-1074 3.9 18:32:26 10° WNW 18:35:26 41° SW 18:38:25 10° SE
H-2A R/B 2.2 18:30:28 10° SSE 18:35:39 58° ENE 18:40:44 10° N
STARLINK-1087 3.9 18:32:55 10° WNW 18:35:52 40° SW 18:38:49 10° SE
STARLINK-1088 3.9 18:33:23 10° WNW 18:36:20 40° SW 18:39:17 10° SE
HJ-1C 3.5 18:33:21 10° S 18:36:42 79° WSW 18:40:05 10° NNW
STARLINK-1115 4.0 18:33:48 10° WNW 18:36:47 40° SW 18:39:46 10° SE
STARLINK-1076 4.0 18:34:15 10° WNW 18:37:14 40° SW 18:40:13 10° SE
SL-16 R/B 2.5 18:32:22 10° S 18:37:39 42° ESE 18:42:57 10° NE
STARLINK-1092 4.0 18:34:42 10° WNW 18:37:41 39° SW 18:40:40 10° SE
STARLINK-1225 3.8 18:33:52 10° SW 18:37:50 54° SE 18:41:49 10° ENE
STARLINK-1080 4.0 18:35:11 10° WNW 18:38:08 39° SW 18:41:04 10° SE
STARLINK-1090 4.0 18:35:39 10° WNW 18:38:35 38° SW 18:41:31 10° SE
STARLINK-1072 3.8 18:34:53 10° WNW 18:38:54 67° SSW 18:42:54 10° SE
STARLINK-1089 4.0 18:36:05 10° WNW 18:39:01 38° SW 18:41:57 10° SE
STARLINK-1104 4.0 18:35:03 10° WNW 18:39:09 56° NNE 18:43:12 10° E
STARLINK-1107 4.0 18:36:33 10° WNW 18:39:29 38° SW 18:42:24 10° SE
Cosmos 2333 Rocket 4.0 18:34:52 10° WSW 18:40:01 34° NW 18:45:10 10° NNE
SL-08 RB Rocket 4.3 18:36:10 10° SE 18:40:19 37° ENE 18:44:32 10° N
Resurs 01 Rocket 3.1 18:39:05 10° ESE 18:42:13 20° ENE 18:45:23 10° NNE
STARLINK-1230 3.7 18:38:34 10° SW 18:42:33 57° SSE 18:46:35 10° ENE
STARLINK-1096 3.9 18:39:15 10° WNW 18:43:15 63° SSW 18:47:13 10° SE
STARLINK-1144 4.0 18:40:03 10° WNW 18:44:08 58° NNE 18:47:59 12° E
STARLINK-1233 2.8 18:42:03 10° WSW 18:45:11 88° SSE 18:48:20 10° ENE
STARLINK-1212 2.8 18:42:31 10° WSW 18:45:38 89° SSE 18:48:48 10° ENE
STARLINK-1105 2.8 18:42:57 10° WSW 18:46:04 89° S 18:49:14 10° ENE
FREGAT/IRIS 2.4 18:43:36 10° SSE 18:46:16 55° ENE 18:48:58 10° N
STARLINK-1206 2.8 18:43:26 10° WSW 18:46:34 90° SSE 18:49:42 10° ENE
STARLINK-1247 2.8 18:43:53 10° WSW 18:47:00 90° NW 18:50:08 10° ENE
Cosmos 1302 Rocket 4.1 18:41:56 10° NNW 18:47:11 64° ENE 18:52:26 10° SE
STARLINK-1243 3.6 18:43:21 10° SW 18:47:22 62° SSE 18:51:25 10° ENE
STARLINK-1227 2.8 18:44:18 10° WSW 18:47:26 89° NNW 18:50:36 10° ENE
STARLINK-1218 2.8 18:44:47 10° WSW 18:47:55 89° NNW 18:51:02 10° ENE
Abrixas rocket 3.9 18:46:37 10° S 18:48:15 14° SE 18:49:07 13° SE
STARLINK-1079 4.0 18:44:18 10° WNW 18:48:16 58° SSW 18:52:10 10° SE
STARLINK-1226 2.8 18:45:14 10° WSW 18:48:21 88° NNW 18:51:29 10° ENE
STARLINK-1254 2.9 18:45:39 10° WSW 18:48:47 88° NNW 18:51:57 10° ENE
STARLINK-1103 3.9 18:45:01 10° WNW 18:49:08 60° NNE 18:52:45 13° E
STARLINK-1215 2.8 18:46:08 10° WSW 18:49:15 87° NNW 18:52:24 10° ENE
STARLINK-1231 2.9 18:46:34 10° WSW 18:49:41 86° NNW 18:52:50 10° ENE
Cosmos 304 Rocket 4.2 18:45:07 10° NNW 18:49:53 67° WSW 18:54:37 10° S
Cosmos 1709 Rocket 4.0 18:44:08 10° N 18:50:22 68° E 18:56:28 10° SSE
STARLINK-1232 2.9 18:47:29 10° WSW 18:50:36 85° NNW 18:53:45 10° ENE
SeaSat 1 3.8 18:45:59 10° NNE 18:50:40 43° NW 18:55:19 10° WSW
Cosmos 1953 3.7 18:48:01 10° SE 18:50:52 19° E 18:53:42 10° NE
STARLINK-1217 2.9 18:47:56 10° WSW 18:51:04 85° NNW 18:54:11 10° ENE
STARLINK-1208 2.9 18:48:21 10° WSW 18:51:29 84° NNW 18:54:39 10° ENE
STARLINK-1229 2.9 18:48:50 10° WSW 18:51:57 84° NNW 18:55:05 10° ENE
STARLINK-1236 3.6 18:48:06 10° SW 18:52:09 66° SSE 18:56:12 10° ENE
STARLINK-1271 2.9 18:49:17 10° WSW 18:52:24 83° NNW 18:55:33 10° ENE
STARLINK-1116 4.1 18:48:44 10° WNW 18:52:42 55° SSW 18:56:26 11° SE
STARLINK-1270 2.9 18:49:45 10° WSW 18:52:52 83° NNW 18:56:00 10° ENE
STARLINK-1154 2.9 18:50:12 10° WSW 18:53:19 82° NNW 18:56:26 10° ENE
STARLINK-1101 3.9 18:50:00 10° WNW 18:54:07 63° NNE 18:57:32 14° E
STARLINK-1197 2.9 18:51:06 10° WSW 18:54:13 81° NNW 18:57:21 10° ENE
Cosmos 1269 Rocket 4.0 18:49:16 10° S 18:54:30 69° ESE 18:59:48 10° NNE
STARLINK-1189 2.9 18:51:34 10° WSW 18:54:40 81° NNW 18:57:48 10° ENE
MONITOR-E 3.7 18:52:10 10° SSE 18:54:46 68° ENE 18:57:26 10° N
STARLINK-1187 3.0 18:52:24 10° WSW 18:55:32 74° NNW 18:58:41 10° ENE
STARLINK-1188 2.9 18:52:28 10° WSW 18:55:35 80° NNW 18:58:43 10° ENE
STARLINK-1198 2.9 18:52:28 10° WSW 18:55:35 80° NNW 18:58:43 10° ENE
STARLINK-1235 3.2 18:53:07 10° WSW 18:56:14 67° NNW 18:59:23 10° ENE
CZ-4C R/B 4.3 18:51:51 10° WNW 18:56:34 26° NNW 19:02:01 10° NE
STARLINK-1199 3.0 18:54:23 10° WSW 18:57:31 78° NNW 19:00:41 10° ENE
STARLINK-1191 3.0 18:54:50 10° WSW 18:57:59 77° NNW 19:01:08 10° ENE
STARLINK-1210 3.0 18:55:18 10° WSW 18:58:26 77° NNW 19:01:36 10° ENE
STARLINK-1221 3.0 18:55:44 10° WSW 18:58:52 76° NNW 19:02:02 10° ENE
STARLINK-1102 3.8 18:54:58 10° WNW 18:59:06 65° NNE 19:02:19 16° E
STARLINK-1219 3.0 18:56:12 10° WSW 18:59:21 76° NNW 19:02:29 10° ENE
STARLINK-1222 3.0 18:56:39 10° WSW 18:59:47 75° NNW 19:02:54 10° ENE
STARLINK-1211 3.0 18:57:06 10° WSW 19:00:14 75° NNW 19:03:20 10° ENE
ISS -3.4 18:56:55 10° WNW 19:00:14 58° NNE 19:02:41 17° E
STARLINK-1214 3.0 18:57:33 10° WSW 19:00:41 74° NNW 19:03:46 11° ENE
STARLINK-1245 3.0 18:58:02 10° WSW 19:01:09 74° NNW 19:04:10 11° ENE
STARLINK-1238 3.0 18:58:25 10° WSW 19:01:33 74° NNW 19:04:37 11° ENE
Cosmos 2297 3.8 18:55:56 10° NNW 19:01:38 82° WSW 19:07:20 10° SSE
STARLINK-1094 4.3 18:58:01 10° WNW 19:01:56 48° SW 19:05:21 13° SE
STARLINK-1269 3.5 18:57:54 10° SW 19:01:58 75° SSE 19:06:03 10° ENE
Cosmos 1455 Rocket 3.2 18:57:56 10° SSW 19:02:16 78° W 19:06:40 10° N
Cosmos 2251 Rocket 4.5 18:57:59 10° SSE 19:02:18 26° E 19:06:40 10° NE
STARLINK-1205 3.0 18:59:21 10° WSW 19:02:28 72° NNW 19:05:27 11° ENE
BREEZE-M DEB (TANK) 4.0 18:54:05 10° W 19:02:47 79° N 19:05:20 16° E
STARLINK-1204 3.0 18:59:50 10° WSW 19:02:56 72° NNW 19:05:54 11° ENE
Cosmos 2084 Rocket 4.0 18:59:27 10° NW 19:03:49 48° NE 19:06:58 17° ESE
STARLINK-1111 3.7 18:59:58 10° WNW 19:04:06 68° NNE 19:07:06 18° ESE
STARLINK-1117 4.4 19:02:53 10° WNW 19:06:45 44° SW 19:10:00 14° SSE
STARLINK-1200 3.5 19:02:41 10° WSW 19:06:47 80° SSE 19:10:50 10° ENE
Cosmos 2237 Rocket 3.2 19:01:41 10° SW 19:07:10 51° NW 19:12:41 10° NNE
CZ-2C R/B 3.3 19:04:10 10° NNE 19:08:42 29° E 19:13:10 10° SSE
STARLINK-1073 3.7 19:04:57 10° WNW 19:09:06 71° NNE 19:11:53 20° ESE
Cosmos 1626 Rocket 3.5 19:04:49 10° N 19:09:15 75° E 19:13:36 10° SSE
STARLINK-1078 4.5 19:07:20 10° WNW 19:11:11 41° SW 19:14:17 14° SSE
STARLINK-1192 3.5 19:07:26 10° WSW 19:11:31 84° SSE 19:15:24 11° ENE
STARLINK-1121 3.6 19:09:55 10° WNW 19:14:04 75° NNE 19:16:39 22° ESE
Cosmos 292 Rocket 4.1 19:10:49 10° NNW 19:15:28 47° ENE 19:18:32 20° SE
ARGOS 3.3 19:10:39 10° SSE 19:16:03 80° WSW 19:21:29 10° NNW
STARLINK-1244 3.5 19:12:21 10° WSW 19:16:27 88° SE 19:20:08 13° ENE
Cosmos 1602 Rocket 3.5 19:12:47 10° N 19:17:16 71° E 19:21:41 10° SSE
IRIDIUM 104 4.5 19:13:32 10° N 19:18:40 54° E 19:23:42 10° SSE
STARLINK-1106 3.6 19:14:52 10° WNW 19:19:02 78° NNE 19:21:25 24° ESE
STARLINK-1138 3.5 19:16:57 10° WSW 19:21:02 87° NNW 19:24:34 14° ENE
STARLINK-1234 3.6 19:19:10 10° W 19:22:03 47° NNW 19:24:04 17° NE
MOS 1 Rocket 4.0 19:18:13 10° NNE 19:23:09 41° E 19:28:13 10° SSE
USA 186 3.0 19:20:03 10° S 19:23:23 46° W 19:26:39 10° NNW
STARLINK-1112 3.6 19:19:53 10° WNW 19:24:03 83° NNE 19:26:14 27° ESE
STARLINK-1143 3.6 19:21:51 10° WSW 19:25:56 83° NNW 19:29:16 15° ENE
MetOp-A 4.1 19:21:25 10° SSE 19:26:44 76° ENE 19:32:06 10° NNW
IRIDIUM 114 4.3 19:22:39 10° N 19:27:51 65° E 19:32:51 11° SSE
CZ-2C R/B 3.5 19:23:34 10° S 19:28:32 57° W 19:33:19 10° NNW
STARLINK-1128 3.6 19:24:51 10° WNW 19:29:01 87° NNE 19:31:01 30° ESE
Cosmos 1544 Rocket 4.3 19:25:36 10° SSW 19:29:54 55° WNW 19:34:17 10° N
Cosmos 1437 3.6 19:28:48 10° N 19:31:24 30° ENE 19:31:24 30° ENE
Cosmos 1470 2.8 19:28:00 10° SSW 19:31:53 77° WNW 19:35:47 10° N
STARLINK-1113 3.5 19:29:50 10° WNW 19:34:00 89° SSW 19:35:47 33° ESE
STARLINK-1241 3.7 19:30:13 10° WSW 19:34:17 76° NNW 19:37:13 18° ENE
SPOT 3 Rocket 3.6 19:29:58 10° SSE 19:35:12 85° WSW 19:40:28 10° NNW
Cosmos 1825 Rocket 3.9 19:32:01 10° N 19:36:18 45° ENE 19:37:53 31° SE
IRIDIUM 103 4.2 19:31:48 10° N 19:37:03 77° E 19:42:00 11° S
STARLINK-1119 3.5 19:34:49 10° WNW 19:38:59 84° SSW 19:40:34 37° ESE
STARLINK-1239 3.7 19:35:09 10° WSW 19:39:12 73° NNW 19:41:56 20° ENE
Cosmos 2369 Rocket 2.2 19:34:21 10° NNW 19:40:04 70° ENE 19:43:14 27° SE
SJ-6B 4.0 19:37:34 10° S 19:41:28 45° W 19:45:27 10° NNW
Cosmos 1726 2.3 19:42:57 42° SE 19:43:36 47° E 19:47:13 10° NNE
STARLINK-1240 3.8 19:39:53 10° WSW 19:43:56 69° NNW 19:46:29 22° ENE
STARLINK-1114 3.6 19:39:50 10° WNW 19:43:59 80° SSW 19:45:24 40° SE
Aureole 2 Rocket 2.3 19:41:39 10° NNW 19:45:11 74° ENE 19:45:56 51° SE
Cosmos 1758 3.9 19:41:50 10° SSW 19:45:53 60° WNW 19:49:57 10° N
Cosmos 2263 4.3 19:40:31 10° NNW 19:46:05 58° ENE 19:48:35 32° ESE
Cosmos 1758 Rocket 3.5 19:41:45 10° N 19:46:08 66° E 19:47:54 34° SSE
STARLINK-1216 3.8 19:44:39 10° WSW 19:48:41 66° NNW 19:51:02 24° ENE
NOSS 3-3 (A) 4.1 19:43:23 10° S 19:48:52 44° ESE 19:55:01 10° NE
CZ-2C R/B 3.9 19:44:05 10° NNE 19:48:53 80° WNW 19:53:34 10° SSW
STARLINK-1130 (DARKSAT) 3.6 19:44:48 10° WNW 19:48:56 75° SSW 19:50:10 44° SE
NOSS 3-3 (C) 4.2 19:43:30 10° S 19:48:59 44° ESE 19:55:07 10° NE
STARLINK-1209 4.0 19:49:21 10° W 19:52:06 36° N 19:52:50 30° NNE
Cosmos 1953 Rocket 3.9 19:48:18 10° N 19:52:36 45° ENE 19:53:22 41° ESE
STARLINK-1237 3.9 19:49:27 10° WSW 19:53:29 64° NNW 19:55:38 26° NE
STARLINK-1084 3.6 19:49:46 10° WNW 19:53:54 71° SSW 19:54:56 48° SE
Terra 3.6 19:53:53 17° ENE 19:54:08 17° ENE 19:57:09 10° NNE
STARLINK-1228 4.0 19:51:33 10° WNW 19:54:16 35° N 19:54:50 31° NNE
Cosmos 2184 Rocket 3.9 19:48:52 10° N 19:55:14 81° E 19:59:37 21° SSE
IRIDIUM 106 4.4 19:50:06 10° N 19:55:20 76° W 20:00:12 12° S
Spot 2 Rocket 3.7 19:55:41 37° ESE 19:57:18 52° ENE 20:02:17 10° N
STARLINK-1202 4.0 19:54:12 10° W 19:58:14 61° NNW 20:00:11 28° NE
STARLINK-1098 3.7 19:54:46 10° WNW 19:58:53 66° SSW 19:59:43 51° SSE
Cosmos 1606 Rocket 3.6 19:59:07 48° SE 19:59:49 53° E 20:04:10 10° NNE
Cosmos 1943 Rocket 2.4 19:55:57 10° NNW 20:01:27 67° WSW 20:04:35 26° S
Meteor 1-21 Rocket 4.5 19:56:13 10° NNW 20:01:45 68° W 20:06:08 16° S
SPOT 1/Viking Rocket 4.1 20:00:50 35° E 20:01:52 39° ENE 20:06:42 10° N
STARLINK-1123 3.7 19:59:45 10° WNW 20:03:51 62° SSW 20:04:30 53° SSE
Cosmos 1943 3.4 20:01:04 24° S 20:04:07 47° ESE 20:09:33 10° NE
STARLINK-1246 4.1 20:01:26 10° W 20:05:28 58° NNW 20:07:11 31° NE
STARLINK-67 4.4 20:03:15 10° WNW 20:05:15 27° NNW 20:05:15 27° NNW
Meteor 2-10 4.0 20:00:55 10° S 20:06:16 82° E 20:11:51 10° NNE
SL-8 R/B 3.6 20:01:45 10° W 20:06:32 76° SSW 20:07:34 53° SE
STARLINK-1201 4.1 20:05:04 10° W 20:08:11 40° N 20:08:41 37° NNE
Resurs 1-3 4.4 20:05:32 19° SSW 20:08:28 49° W 20:12:44 10° NNW
STARLINK-1097 3.8 20:04:43 10° WNW 20:08:49 57° SSW 20:09:16 53° S
ATLAS 2AS CENTAUR R/B 3.2 20:03:41 10° NW 20:11:18 56° NE 20:14:22 34° E
STARLINK-1224 4.1 20:08:35 10° W 20:12:36 55° NNW 20:13:58 36° NE
STARLINK-1099 3.9 20:09:44 10° WNW 20:13:47 53° SW 20:14:04 52° SSW
STARLINK-1203 4.2 20:10:01 10° W 20:13:54 52° NNW 20:15:06 37° NE
USA 234 3.2 20:08:43 10° NE 20:15:18 89° SE 20:21:52 10° WSW
H-2A R/B 4.3 20:11:20 10° SW 20:15:26 22° W 20:19:27 10° NW
Cosmos 2154 Rocket 3.9 20:09:57 10° N 20:16:20 77° E 20:19:00 38° SSE
USA 245 4.0 20:15:17 51° SE 20:16:31 69° ENE 20:22:23 10° N
STARLINK-1225 4.2 20:13:12 10° W 20:17:12 53° NNW 20:18:23 38° NE
Resurs 01 Rocket 2.2 20:16:27 31° SSW 20:18:20 55° W 20:22:42 10° NNW
DMSP B5D2-2 4.4 20:13:12 10° N 20:18:22 65° WNW 20:23:32 10° SSW
STARLINK-1104 4.0 20:14:43 10° WNW 20:18:44 50° SW 20:18:51 50° SSW
Cosmos 1328 3.7 20:16:21 10° N 20:20:23 89° ENE 20:20:25 88° SE
STARLINK-1233 4.3 20:18:17 10° WNW 20:21:02 36° NNW 20:21:02 36° NNW
STARLINK-1212 4.3 20:18:46 10° WNW 20:21:27 35° NNW 20:21:27 35° NNW
SL-16 R/B 3.7 20:16:34 10° WSW 20:21:50 38° NW 20:27:07 10° NNE
STARLINK-1230 4.2 20:17:59 10° W 20:21:58 52° NNW 20:22:57 41° NNE
Cosmos 921 Rocket 4.3 20:18:24 10° N 20:21:21 26° NE 20:21:21 26° NE
STARLINK-1105 4.3 20:19:11 10° WNW 20:21:54 35° NNW 20:21:54 35° NNW
STARLINK-1206 4.4 20:19:41 10° WNW 20:22:19 35° NNW 20:22:19 35° NNW
Cosmos 2228 2.8 20:22:39 77° S 20:22:57 86° E 20:27:17 10° N
STARLINK-1247 4.4 20:20:08 10° WNW 20:22:44 34° NNW 20:22:44 34° NNW
STARLINK-1227 4.4 20:20:33 10° WNW 20:23:12 35° NNW 20:23:12 35° NNW
STARLINK-1144 4.2 20:19:44 10° WNW 20:23:38 46° SW 20:23:38 46° SW
STARLINK-1218 4.4 20:21:03 10° WNW 20:23:36 34° NNW 20:23:36 34° NNW
Cosmos 967 Rocket 4.4 20:17:42 10° SSW 20:24:06 69° ESE 20:30:34 10° NE
STARLINK-1226 4.4 20:21:29 10° WNW 20:24:03 34° NNW 20:24:03 34° NNW
STARLINK-1254 4.4 20:21:54 10° WNW 20:24:30 34° NNW 20:24:30 34° NNW
STARLINK-1215 4.5 20:22:24 10° WNW 20:24:54 34° NNW 20:24:54 34° NNW
STARLINK-1243 4.3 20:22:50 10° W 20:26:49 50° NNW 20:27:35 43° NNE
Cosmos 1953 3.6 20:23:15 10° SW 20:26:59 38° WNW 20:30:44 10° N
STARLINK-1103 4.4 20:24:43 10° WNW 20:28:25 42° SW 20:28:25 42° SW
Cosmos 962 Rocket 4.5 20:24:25 10° N 20:30:36 63° ENE 20:31:43 53° ESE
STARLINK-1236 4.3 20:27:39 10° W 20:31:37 49° NNW 20:32:12 45° NNE
Nadezhda 1 Rocket 4.0 20:29:48 25° S 20:33:50 89° W 20:40:16 10° N
SL-8 Rocket 4.3 20:30:24 10° N 20:36:30 48° ENE 20:37:01 47° E
ISS -1.9 20:33:49 10° WNW 20:35:39 27° W 20:35:39 27° W
STARLINK-1269 4.4 20:37:37 10° W 20:41:35 47° N 20:41:43 47° N
Cosmos 2058 Rocket 3.6 20:42:37 52° NNE 20:42:37 52° NNE 20:46:08 10° NNE
MetOp-B 4.4 20:40:10 43° SSW 20:41:47 62° WSW 20:47:07 10° NNW
Cosmos 1603 3.8 20:37:42 10° SSW 20:43:20 75° WNW 20:48:59 10° NNE
SPOT 5 3.3 20:44:26 44° NNE 20:44:26 44° NNE 20:47:45 10° N
Cosmos 1703 4.1 20:40:06 10° NNW 20:43:49 47° W 20:43:49 47° W
Cosmos 2251 Rocket 4.3 20:39:02 10° SW 20:44:15 53° WNW 20:49:33 10° NNE
Cosmos 2366 rocket 4.4 20:38:24 10° N 20:44:16 44° ENE 20:44:18 44° ENE
STARLINK-1200 4.5 20:42:28 10° W 20:46:21 46° NNW 20:46:21 46° NNW
CZ-4C R/B 4.5 20:42:23 10° NW 20:47:19 23° N 20:52:56 10° ENE
IGS 5A 3.9 20:49:02 60° NW 20:49:02 60° NW 20:52:31 10° NNW
ERS-1 Rocket 2.9 20:48:38 72° NE 20:48:38 72° NE 20:53:28 10° N
CZ-2C R/B 3.7 20:44:16 10° N 20:49:08 43° WNW 20:53:59 10° SW
Landsat 7 3.8 20:49:39 77° WSW 20:49:40 77° WSW 20:54:27 10° NNW
Cosmos 1656 Rocket 3.9 20:56:01 10° NNW 21:01:37 61° WSW 21:02:03 59° SW
Aureole 1 Rocket 4.2 21:01:51 40° SSW 21:05:00 82° ESE 21:11:32 10° NNE
CARTOSAT-1 4.5 21:07:30 46° NNW 21:07:30 46° NNW 21:10:34 10° NNW
COSMOS 2455 3.0 21:09:17 10° NNW 21:15:09 64° NE 21:15:09 64° NE
In-Cosmos 22 Rocket 4.4 21:15:01 10° N 21:20:10 66° NNE 21:20:10 66° NNE
Cosmos 2341 Rocket 4.2 21:15:38 10° NNW 21:21:55 65° W 21:22:43 59° SW
Cosmos 1461 4.3 21:18:00 10° NW 21:20:56 39° NNW 21:20:56 39° NNW
Cosmos 2369 Rocket 4.0 21:19:20 10° NW 21:23:32 21° W 21:25:03 19° WSW
NOSS 3-4 (A) 3.8 21:22:47 10° NW 21:29:44 72° SW 21:30:09 70° SSW
NOSS 3-4 (C) 3.8 21:22:53 10° NW 21:29:50 73° SW 21:30:14 71° SSW
Terra 2.8 21:32:46 45° NNW 21:32:46 45° NNW 21:36:06 10° NNW
ATLAS CENTAUR R/B 4.2 21:30:34 10° N 21:31:47 11° NNE 21:31:52 11° NNE
Cosmos 2218 Rocket 4.2 21:42:54 10° NNW 21:48:36 63° WNW 21:48:36 63° WNW
USA 234 4.0 21:51:48 10° ENE 21:58:03 49° NNW 22:04:17 10° W
Cosmos 2181 Rocket 4.5 22:00:17 53° WNW 22:00:20 53° WNW 22:06:27 10° N
ATLAS 2AS CENTAUR R/B 3.4 21:55:06 10° NW 22:01:48 45° WSW 22:01:48 45° WSW
Cosmos 1697 Rocket 4.0 22:06:11 10° NNW 22:10:12 34° NNE 22:10:12 34° NNE
Mayak 1.4 22:14:32 10° N 22:15:32 17° N 22:15:32 17° N
Cosmos 1980 Rocket 3.7 22:31:46 10° NNW 22:35:28 30° NNE 22:35:28 30° NNE
CZ-4C R/B 3.7 22:31:17 10° NW 22:37:41 42° NE 22:38:44 40° NE
Cosmos 2082 Rocket 4.5 23:00:52 16° NE 23:00:52 16° NE 23:02:03 10° NE
ATLAS 5 CENTAUR R/B 4.2 23:20:05 18° NNE 23:20:05 18° NNE 23:21:42 10° NNE
Cosmos 1833 Rocket 4.4 23:28:31 27° NNE 23:28:31 27° NNE 23:31:00 10° NNE
USA 234 4.2 23:34:15 10° ENE 23:40:22 44° N 23:46:29 10° WNW
SL-16 R/B 3.9 23:52:44 31° ENE 23:52:47 31° ENE 23:58:09 10° N
